Dewpoint
41 42 42 44 44 44 44 44 44 43 43 43 44 44 43 43 43 42 42 42 41 41 41 41 40 41 40 41 41 41 40 40 38 39 39 40 38 38 38 39 40 40 41
41 41 42 42 42 42 41 41 42 41 42 43 43 42 42 43 43 42 42 41 40 40 41 40 40 40 40 40 41 40 40 40 40 38 39 39 39 39 39 39 39 38 37
40 41 41 41 41 40 40 41 41 42 41 41 41 41 41 41 40 40 40 40 40 40 40 40 40 40 40 40 40 40 40 40 40 39 39 40 40 40 39 40 39 39 38
39 40 40 41 41 42 41 42 42 40 39 38 38 38 39 40 40 40 39 39 39 39 40 40 40 40 39 39 39 40 40 40 40 40 40 40 40 40 39 39 39 39 39
38 39 40 41 42 43 44 43 41 41 41 40 39 38 38 37 37 38 39 39 40 40 41 41 41 43 47 46 43 41 40 40 40 39 39 39 38 38 38 38 39 42 42
37 38 38 41 43 45 43 42 42 43 42 41 40 39 39 38 45 49 46 40 39 39 39 40 41 44 44 48 50 51 50 41 40 39 41 40 39 38 39 41 41 41 39
37 37 38 41 44 44 42 42 43 42 41 41 41 41 42 42 49 51 50 44 42 41 41 41 42 42 46 44 46 48 46 47 49 45 43 43 42 41 41 36 38 41 42
37 36 37 41 42 42 41 42 42 42 42 43 44 43 43 44 50 51 49 43 42 41 42 42 42 43 44 45 45 43 42 42 41 41 41 41 43 44 44 45 45 43 42
36 36 37 40 40 41 41 42 42 43 44 44 44 43 42 42 48 49 45 41 41 41 42 42 42 43 46 49 42 41 41 42 44 47 48 48 49 49 48 46 44 42 40
35 37 38 39 39 40 42 42 43 44 44 44 43 43 45 43 47 47 44 41 40 41 41 42 45 46 46 47 43 41 40 40 41 42 45 46 46 46 46 45 45 41 40
37 39 39 39 40 41 43 44 44 44 44 43 43 43 43 43 43 48 46 40 40 40 40 40 41 45 46 45 45 42 41 43 45 42 39 39 40 39 40 40 39 40 39
41 40 39 41 41 42 43 44 44 44 43 42 42 41 41 42 46 47 46 44 43 41 40 41 42 43 41 42 43 44 42 39 37 36 35 34 34 35 36 36 37 37 39
41 40 41 42 42 43 43 43 43 43 43 42 41 40 40 41 41 45 45 44 42 41 41 41 40 39 41 41 41 39 37 34 33 31 31 31 32 32 32 33 35 37 37
41 42 42 42 42 42 42 43 43 43 42 41 40 40 39 40 40 40 40 39 40 39 39 37 37 38 38 36 34 33 32 32 30 30 29 30 30 31 31 33 33 34 34
41 42 42 43 43 42 42 42 42 41 41 40 40 40 39 38 39 41 40 39 38 38 38 36 34 34 31 31 30 31 31 30 29 30 29 29 31 31 32 33 33 33 32
42 43 43 43 42 41 41 41 45 44 44 43 43 40 38 41 42 41 39 39 39 38 36 34 32 31 30 29 29 29 29 29 29 29 30 30 31 31 32 31 31 31 30
42 42 42 41 40 40 40 39 38 41 44 43 43 43 43 40 41 40 39 38 38 37 34 33 32 31 29 29 29 29 28 29 29 30 30 31 30 30 30 30 30 31 31
41 43 40 40 40 40 39 39 39 38 37 38 42 42 44 43 42 40 39 38 34 33 33 32 31 30 29 29 29 29 29 30 30 30 30 30 30 30 30 30 28 28 32
39 39 39 39 39 40 39 39 38 37 37 37 38 41 43 43 43 41 39 36 34 33 32 30 30 30 29 29 29 29 30 30 30 30 31 30 30 30 30 29 30 30 30
38 39 39 39 40 39 38 38 37 37 36 36 36 36 37 39 37 35 35 35 36 35 33 30 30 29 29 29 29 29 30 29 30 30 31 32 30 30 30 30 29 29 28
39 39 41 39 39 38 38 37 37 36 36 35 36 37 39 36 35 34 33 33 33 32 31 30 29 29 29 29 29 29 29 29 29 28 31 31 31 31 32 30 30 29 28
38 38 38 38 38 38 37 37 36 36 35 35 36 37 40 36 34 34 34 33 33 32 31 30 30 29 29 30 30 29 29 28 28 29 31 31 31 31 32 30 29 28 27
39 38 37 38 38 39 38 36 36 36 36 36 36 36 35 35 35 34 34 34 33 32 31 30 30 30 30 30 30 31 30 30 30 31 30 31 31 30 31 31 30 29 29
39 38 37 37 37 37 36 37 37 37 37 37 36 35 35 34 34 33 33 33 33 32 32 31 30 30 30 30 30 31 30 31 31 31 31 32 31 31 31 31 31 30 30
38 37 37 37 38 37 37 37 37 37 37 36 36 35 34 34 33 33 33 33 32 32 32 31 31 30 30 30 30 30 31 32 31 32 31 31 31 32 32 32 32 31 31
38 38 38 38 38 37 37 37 37 37 36 36 36 35 35 34 33 33 33 33 32 32 31 31 31 30 30 30 30 31 32 32 32 33 32 32 32 32 32 32 32 32 31
Lifted_Index
12 12 11 10 10 9 9 9 9 10 10 11 11 11 11 12 12 12 12 12 12 13 13 13 13 13 12 12 12 12 12 11 10 10 11 11 11 12 12 13 13 13 12
11 11 10 10 9 9 9 9 9 9 10 10 11 11 12 12 12 12 12 12 12 12 12 12 12 12 12 12 11 11 11 11 11 10 10 11 11 11 12 13 13 12 11
10 10 9 9 9 9 9 9 9 9 9 10 10 11 12 12 12 12 12 12 12 12 12 12 12 12 12 12 12 11 11 11 11 10 10 10 11 11 12 12 11 10 9
9 9 9 9 9 9 9 9 9 9 9 9 10 11 12 13 13 13 13 13 13 13 13 13 13 13 13 12 12 11 11 10 10 10 10 10 11 11 12 11 9 8 7
8 8 8 9 9 9 9 9 9 9 9 9 9 10 11 13 13 13 13 14 14 14 14 13 13 13 12 12 11 10 10 10 10 9 10 10 11 11 11 9 7 6 6
8 8 8 8 9 9 9 9 9 9 9 8 8 9 10 12 13 14 14 14 14 14 14 14 13 12 12 12 11 10 9 9 9 9 10 10 11 10 9 7 6 6 6
8 8 8 8 8 8 9 9 9 9 9 9 8 8 10 12 14 14 14 14 14 14 14 13 13 12 12 11 11 10 9 9 9 10 10 10 10 9 8 6 6 6 6
8 8 8 8 8 8 9 9 10 10 9 9 8 8 10 13 14 14 14 14 14 14 14 13 13 12 12 11 11 10 10 10 10 11 11 10 8 7 6 5 5 6 6
7 7 7 8 8 8 8 9 10 10 9 9 8 9 10 13 14 14 14 14 14 14 13 13 13 12 12 11 11 10 10 10 11 12 11 10 7 6 5 5 6 6 7
8 8 8 8 8 8 8 9 9 9 9 8 8 9 11 13 14 14 14 14 14 14 13 13 12 12 12 11 10 10 10 11 12 12 12 10 8 6 6 6 7 7 7
8 8 8 8 8 8 8 9 9 9 8 8 8 9 11 13 14 14 13 14 14 13 13 12 12 12 11 11 11 11 11 12 13 14 13 11 9 8 8 8 9 9 9
9 9 9 8 8 8 8 9 9 9 8 7 7 9 11 13 13 13 13 13 13 13 12 12 12 11 12 12 12 12 13 14 14 15 14 12 10 10 10 10 11 11 11
9 9 9 9 9 8 8 8 9 8 7 7 7 8 11 13 13 13 13 13 13 12 12 12 11 12 12 13 13 13 14 15 16 15 13 11 10 10 11 11 12 12 12
9 9 9 9 9 9 9 9 8 8 7 7 7 9 11 12 13 13 13 13 12 12 12 11 11 12 13 14 14 15 16 16 16 14 12 11 10 10 10 11 11 12 12
9 9 9 9 9 9 9 8 8 8 8 8 9 10 12 13 13 13 13 12 12 11 11 11 11 12 13 14 15 15 16 16 15 13 11 10 10 9 10 11 11 12 12
9 9 9 9 9 9 8 8 8 8 9 10 11 12 13 13 13 12 12 11 11 11 11 11 12 13 13 14 14 15 16 16 14 13 11 10 10 9 10 10 11 12 12
9 9 9 9 8 8 7 7 7 8 9 11 12 13 13 13 12 12 11 11 11 11 11 12 12 13 13 14 14 15 15 15 14 12 11 10 10 10 10 10 11 12 13
9 9 8 8 7 7 7 7 7 7 8 10 12 13 12 12 11 11 11 11 11 11 13 13 13 13 13 14 15 15 15 14 13 11 10 10 10 10 10 10 12 13 13
8 8 7 7 7 7 7 7 7 7 8 10 11 12 12 11 11 11 11 11 11 12 13 13 13 13 14 14 15 15 15 13 12 11 10 10 10 10 10 11 12 13 13
8 7 7 7 7 7 7 7 8 8 10 11 11 12 11 11 11 11 11 11 12 12 13 13 13 13 14 15 15 15 14 13 12 11 10 10 10 10 10 12 13 13 13
7 6 6 7 7 7 7 8 9 10 10 11 11 11 11 11 11 11 12 12 12 12 13 13 13 14 14 15 15 14 13 12 11 11 10 10 10 10 11 12 13 13 14
6 6 6 6 6 7 8 9 10 11 11 11 11 11 10 11 11 12 12 12 12 12 12 13 13 14 14 15 15 14 13 12 11 11 10 10 10 10 11 12 13 14 14
5 5 5 6 7 8 9 10 11 11 11 11 11 10 11 11 11 12 12 11 11 11 12 12 12 13 14 15 14 14 13 12 12 11 11 10 10 11 11 12 13 14 14
5 5 6 6 8 9 10 11 11 11 11 11 11 11 11 11 11 11 11 11 11 11 11 11 11 12 13 14 14 13 13 12 12 12 11 11 11 11 11 12 13 14 14
6 6 7 8 9 10 10 11 11 11 11 11 11 12 12 12 11 11 11 11 11 11 11 11 11 11 12 12 12 13 12 12 12 12 12 11 11 11 12 12 13 14 14
7 8 9 9 10 10 10 10 11 11 12 12 12 12 12 12 12 11 11 12 12 12 11 11 11 11 11 11 11 12 12 12 12 12 12 12 11 11 12 12 13 14 14